Location: Unspecified
(0.0000°N, 0.0000°E)
Time: 03:37:09
(UTC+01:00)

Ariane H10 - Pass Details

Date: 02 December 2017
Orbit: 390 x 35079 km, 4.3° (Epoch: 13 December)

Event Time Altitude Azimuth Distance (km) Brightness Sun altitude
Rises 17:43:21 0° 263° (W) 5,442 9.4 15.3°
Reaches altitude 10° 17:45:22 10° 262° (W) 5,093 9.6 14.8°
Maximum altitude 23:47:48 87° 5° (N) 33,736 11.2 -63.3°
Drops below altitude 10° 03:32:14 10° 85° (E) 6,403 8.6 -44.7°
Sets 03:34:47 0° 86° (E) 6,609 8.9 -44.1°
